TimeCDT,TemperatureF,Dew PointF,Humidity,Sea Level PressureIn,VisibilityMPH,Wind Direction,Wind SpeedMPH,Gust SpeedMPH,PrecipitationIn,Events,Conditions,WindDirDegrees,DateUTC
12:56 AM,71.8,64.9,79,30.14,10.0,NNE,4.6,-,N/A,,Clear,30,2013-08-27 05:56:00
1:59 AM,70.3,64.9,83,30.12,10.0,North,3.5,-,N/A,,Clear,10,2013-08-27 06:59:00
2:55 AM,69.8,64.8,84,30.11,10.0,NNE,4.6,-,N/A,,Clear,20,2013-08-27 07:55:00
3:55 AM,70.0,65.5,86,30.11,10.0,NNE,3.5,-,N/A,,Clear,20,2013-08-27 08:55:00
4:55 AM,68.2,65.1,90,30.10,10.0,North,4.6,-,N/A,,Clear,360,2013-08-27 09:55:00
5:55 AM,67.3,64.6,91,30.10,10.0,NNE,4.6,-,N/A,,Partly Cloudy,20,2013-08-27 10:55:00
6:55 AM,67.6,64.9,91,30.12,10.0,North,3.5,-,N/A,,Partly Cloudy,360,2013-08-27 11:55:00
7:57 AM,72.7,66.4,81,30.13,10.0,NNE,6.9,-,N/A,,Partly Cloudy,30,2013-08-27 12:57:00
8:55 AM,78.4,69.4,74,30.14,10.0,NE,6.9,-,N/A,,Partly Cloudy,50,2013-08-27 13:55:00
9:55 AM,81.5,71.8,72,30.13,10.0,ESE,4.6,-,N/A,,Partly Cloudy,110,2013-08-27 14:55:00
10:09 AM,82.4,71.6,70,30.11,10.0,ESE,4.6,-,N/A,,Scattered Clouds,110,2013-08-27 15:09:00
10:55 AM,83.7,68.0,59,30.12,10.0,Variable,1.2,-,N/A,,Scattered Clouds,0,2013-08-27 15:55:00
11:55 AM,84.4,66.7,55,30.11,10.0,Variable,3.5,-,N/A,,Scattered Clouds,0,2013-08-27 16:55:00
12:55 PM,86.2,65.8,51,30.10,10.0,South,5.8,-,N/A,,Scattered Clouds,170,2013-08-27 17:55:00
1:55 PM,86.9,64.2,47,30.08,10.0,South,8.1,-,N/A,,Scattered Clouds,170,2013-08-27 18:55:00
2:55 PM,87.1,66.0,49,30.07,10.0,Variable,5.8,-,N/A,,Partly Cloudy,0,2013-08-27 19:55:00
3:55 PM,86.9,65.3,48,30.06,10.0,South,9.2,-,N/A,,Scattered Clouds,180,2013-08-27 20:55:00
4:55 PM,86.7,65.1,48,30.04,10.0,SW,5.8,-,N/A,,Scattered Clouds,230,2013-08-27 21:55:00
5:55 PM,85.5,66.6,53,30.04,10.0,SW,4.6,-,N/A,,Scattered Clouds,230,2013-08-27 22:55:00
6:55 PM,83.1,67.5,59,30.04,10.0,SW,3.5,-,N/A,,Scattered Clouds,220,2013-08-27 23:55:00
7:55 PM,80.1,68.7,68,30.04,10.0,Calm,Calm,-,N/A,,Scattered Clouds,0,2013-08-28 00:55:00
8:55 PM,78.3,68.7,72,30.05,10.0,Calm,Calm,-,N/A,,Scattered Clouds,0,2013-08-28 01:55:00
9:55 PM,75.9,68.5,78,30.06,10.0,Calm,Calm,-,N/A,,Partly Cloudy,0,2013-08-28 02:55:00
10:55 PM,74.3,68.7,83,30.06,10.0,Calm,Calm,-,N/A,,Partly Cloudy,0,2013-08-28 03:55:00
11:55 PM,74.5,68.0,80,30.05,10.0,Calm,Calm,-,N/A,,Partly Cloudy,0,2013-08-28 04:55:00